{"data":{"norad_id":51129,"epoch":"2026-05-25T04:51:52.067808Z","epoch_age_seconds":57834,"freshness":"FRESH","line1":"1 51129U 22005AB  26145.20268597 -.00000637  00000+0 -21966-4 0  9999","line2":"2 51129  53.2141 315.6397 0001177  92.6116 267.5011 15.08837836240288","mean_motion":15.08837836,"eccentricity":0.0001177,"inclination_deg":53.2141,"raan_deg":315.6397,"arg_perigee_deg":92.6116,"mean_anomaly_deg":267.5011,"bstar":-2.1966e-5,"rev_number":24028,"period_min":95.437691555874,"perigee_km":538.93576815398,"apogee_km":540.5642387546,"semimajor_km":6917.8870034543,"source":"CELESTRAK","updated_at":"2026-05-25T13:38:16.911597Z"}}